Tiempo cada hora Bolshie Golubochki

Hoy, 31 Julio, Sábado

Tiempo Temperatura Precipitaciones Viento Presión Humedad
00:00 +19°C° 0 mm 2 mps 742 mmHg 83%
01:00 +18°C° 0 mm 3 mps 742 mmHg 86%
02:00 +17°C° 0 mm 3 mps 742 mmHg 89%
03:00 +17°C° 0 mm 3 mps 742 mmHg 88%
04:00 +17°C° 0 mm 3 mps 742 mmHg 87%
05:00 +17°C° 0 mm 3 mps 742 mmHg 86%
06:00 +19°C° 0 mm 3 mps 742 mmHg 78%
07:00 +21°C° 0 mm 3 mps 743 mmHg 70%
08:00 +23°C° 0 mm 4 mps 743 mmHg 63%
09:00 +25°C° 0 mm 4 mps 743 mmHg 59%
10:00 +26°C° 0 mm 4 mps 743 mmHg 55%
11:00 +27°C° 0 mm 5 mps 743 mmHg 51%
12:00 +27°C° 0 mm 5 mps 743 mmHg 51%
13:00 +28°C° 0 mm 5 mps 743 mmHg 51%
14:00 +28°C° 0 mm 5 mps 743 mmHg 51%
15:00 +28°C° 0 mm 5 mps 743 mmHg 51%
16:00 +28°C° 0 mm 5 mps 743 mmHg 51%
17:00 +28°C° 0 mm 4 mps 743 mmHg 51%
18:00 +26°C° 0 mm 4 mps 743 mmHg 56%
19:00 +24°C° 0 mm 3 mps 744 mmHg 62%
20:00 +21°C° 0 mm 2 mps 744 mmHg 67%
21:00 +21°C° 0 mm 1 mps 744 mmHg 68%
22:00 +20°C° 0 mm 1 mps 744 mmHg 70%
23:00 +20°C° 0 mm 1 mps 745 mmHg 71%

Mañana, 1 Agosto, Domingo

Tiempo Temperatura Precipitaciones Viento Presión Humedad
00:00 +20°C° 0 mm 1 mps 745 mmHg 72%
01:00 +18°C° 0 mm 2 mps 745 mmHg 74%
02:00 +18°C° 0 mm 2 mps 745 mmHg 75%
03:00 +18°C° 0 mm 2 mps 745 mmHg 75%
04:00 +18°C° 0 mm 2 mps 745 mmHg 75%
05:00 +19°C° 0 mm 2 mps 745 mmHg 75%
06:00 +21°C° 0 mm 3 mps 745 mmHg 69%
07:00 +24°C° 0 mm 3 mps 745 mmHg 62%
08:00 +26°C° 0 mm 4 mps 745 mmHg 56%
09:00 +28°C° 0 mm 4 mps 745 mmHg 52%
10:00 +29°C° 0 mm 5 mps 745 mmHg 48%
11:00 +32°C° 0 mm 5 mps 745 mmHg 44%
12:00 +32°C° 0 mm 6 mps 745 mmHg 44%
13:00 +32°C° 0 mm 6 mps 745 mmHg 43%
14:00 +33°C° 0 mm 6 mps 745 mmHg 43%
15:00 +32°C° 0 mm 5 mps 744 mmHg 45%
16:00 +32°C° 0 mm 4 mps 744 mmHg 47%
17:00 +32°C° 0 mm 4 mps 744 mmHg 49%
18:00 +29°C° 0 mm 3 mps 744 mmHg 54%
19:00 +27°C° 0 mm 3 mps 744 mmHg 58%
20:00 +25°C° 0 mm 2 mps 744 mmHg 63%
21:00 +24°C° 0 mm 2 mps 744 mmHg 66%
22:00 +23°C° 0 mm 2 mps 744 mmHg 70%
23:00 +21°C° 0 mm 2 mps 744 mmHg 73%

Pasado mañana, 2 Agosto, Lunes

Tiempo Temperatura Precipitaciones Viento Presión Humedad
00:00 +21°C° 0 mm 2 mps 744 mmHg 73%
01:00 +21°C° 0 mm 2 mps 744 mmHg 73%
02:00 +21°C° 0 mm 2 mps 744 mmHg 73%
03:00 +21°C° 0 mm 2 mps 744 mmHg 72%
04:00 +21°C° 0 mm 2 mps 744 mmHg 71%
05:00 +21°C° 0 mm 2 mps 743 mmHg 71%
06:00 +23°C° 0 mm 2 mps 743 mmHg 67%
07:00 +25°C° 0 mm 3 mps 743 mmHg 62%
08:00 +26°C° 0 mm 3 mps 743 mmHg 58%
09:00 +28°C° 0 mm 4 mps 743 mmHg 53%
10:00 +30°C° 0 mm 5 mps 742 mmHg 47%
11:00 +33°C° 0 mm 5 mps 742 mmHg 42%
12:00 +33°C° 0 mm 6 mps 742 mmHg 44%
13:00 +32°C° 0 mm 6 mps 742 mmHg 47%
14:00 +32°C° 0 mm 6 mps 741 mmHg 49%
15:00 +32°C° 0 mm 6 mps 741 mmHg 52%
16:00 +30°C° 0 mm 6 mps 741 mmHg 56%
17:00 +29°C° 0 mm 6 mps 741 mmHg 59%
18:00 +27°C° 0 mm 5 mps 741 mmHg 62%
19:00 +25°C° 0 mm 5 mps 740 mmHg 65%
20:00 +22°C° 0 mm 4 mps 740 mmHg 68%
21:00 +21°C° 1.4 mm 3 mps 740 mmHg 77%
22:00 +20°C° 1.4 mm 2 mps 740 mmHg 86%
23:00 +19°C° 1.4 mm 2 mps 740 mmHg 95%

3 Agosto, Martes

Tiempo Temperatura Precipitaciones Viento Presión Humedad
00:00 +19°C° 0.3 mm 3 mps 740 mmHg 94%
01:00 +19°C° 0.3 mm 3 mps 740 mmHg 94%
02:00 +20°C° 0.3 mm 4 mps 740 mmHg 94%
03:00 +19°C° 0 mm 5 mps 740 mmHg 93%
04:00 +19°C° 0 mm 5 mps 740 mmHg 91%
05:00 +19°C° 0 mm 6 mps 740 mmHg 90%
06:00 +19°C° 0.1 mm 5 mps 741 mmHg 89%
07:00 +19°C° 0.1 mm 5 mps 741 mmHg 88%
08:00 +19°C° 0.1 mm 5 mps 741 mmHg 88%
09:00 +19°C° 0.2 mm 5 mps 742 mmHg 86%
10:00 +19°C° 0.2 mm 6 mps 742 mmHg 84%
11:00 +19°C° 0.2 mm 6 mps 743 mmHg 82%
12:00 +20°C° 0.2 mm 6 mps 743 mmHg 79%
13:00 +20°C° 0.2 mm 5 mps 744 mmHg 77%
14:00 +20°C° 0.2 mm 5 mps 744 mmHg 74%
15:00 +20°C° 0.2 mm 5 mps 744 mmHg 72%
16:00 +21°C° 0.2 mm 4 mps 744 mmHg 70%
17:00 +21°C° 0.2 mm 4 mps 745 mmHg 69%
18:00 +20°C° 0.1 mm 4 mps 745 mmHg 72%
19:00 +18°C° 0.1 mm 3 mps 745 mmHg 75%
20:00 +17°C° 0.1 mm 3 mps 746 mmHg 79%
21:00 +16°C° 0 mm 3 mps 746 mmHg 80%
22:00 +16°C° 0 mm 3 mps 746 mmHg 81%
23:00 +14°C° 0 mm 3 mps 746 mmHg 82%

4 Agosto, Miércoles

Tiempo Temperatura Precipitaciones Viento Presión Humedad
00:00 +14°C° 0 mm 3 mps 747 mmHg 83%
01:00 +14°C° 0 mm 3 mps 747 mmHg 84%
02:00 +14°C° 0 mm 3 mps 747 mmHg 85%
03:00 +14°C° 0 mm 3 mps 747 mmHg 86%
04:00 +15°C° 0 mm 2 mps 747 mmHg 87%
05:00 +14°C° 0 mm 2 mps 748 mmHg 88%
06:00 +16°C° 0 mm 2 mps 748 mmHg 80%
07:00 +18°C° 0 mm 3 mps 748 mmHg 72%
08:00 +20°C° 0 mm 3 mps 748 mmHg 65%
09:00 +22°C° 0 mm 3 mps 749 mmHg 59%
10:00 +24°C° 0 mm 3 mps 749 mmHg 54%
11:00 +25°C° 0 mm 3 mps 749 mmHg 48%
12:00 +26°C° 0 mm 3 mps 749 mmHg 46%
13:00 +26°C° 0 mm 3 mps 749 mmHg 44%
14:00 +27°C° 0 mm 3 mps 749 mmHg 41%
15:00 +26°C° 0 mm 3 mps 749 mmHg 47%
16:00 +24°C° 0 mm 3 mps 749 mmHg 53%
17:00 +23°C° 0 mm 2 mps 749 mmHg 59%
18:00 +23°C° 0 mm 2 mps 749 mmHg 61%
19:00 +21°C° 0 mm 2 mps 749 mmHg 63%
20:00 +21°C° 0 mm 1 mps 749 mmHg 65%
21:00 +21°C° 0 mm 1 mps 749 mmHg 65%
22:00 +21°C° 0 mm 1 mps 749 mmHg 66%
23:00 +20°C° 0 mm 1 mps 749 mmHg 66%

5 Agosto, Jueves

Tiempo Temperatura Precipitaciones Viento Presión Humedad
00:00 +20°C° 0 mm 1 mps 749 mmHg 68%
01:00 +18°C° 0 mm 0 mps 749 mmHg 69%
02:00 +17°C° 0 mm 0 mps 749 mmHg 70%
03:00 +19°C° 0 mm 1 mps 749 mmHg 71%
04:00 +19°C° 0 mm 1 mps 749 mmHg 72%
05:00 +19°C° 0 mm 1 mps 749 mmHg 73%
06:00 +20°C° 0 mm 1 mps 749 mmHg 68%
07:00 +22°C° 0 mm 1 mps 749 mmHg 62%
08:00 +23°C° 0 mm 1 mps 749 mmHg 56%
09:00 +25°C° 0 mm 2 mps 749 mmHg 51%
10:00 +26°C° 0 mm 2 mps 749 mmHg 45%
11:00 +27°C° 0 mm 3 mps 748 mmHg 40%
12:00 +26°C° 0 mm 4 mps 748 mmHg 44%
13:00 +25°C° 0 mm 4 mps 748 mmHg 49%
14:00 +23°C° 0 mm 5 mps 748 mmHg 54%
15:00 +21°C° 0.2 mm 4 mps 748 mmHg 64%
16:00 +20°C° 0.2 mm 3 mps 748 mmHg 75%
17:00 +18°C° 0.2 mm 2 mps 748 mmHg 85%
18:00 +18°C° 0.1 mm 2 mps 748 mmHg 86%
19:00 +17°C° 0.1 mm 2 mps 747 mmHg 86%
20:00 +17°C° 0.1 mm 2 mps 747 mmHg 87%
21:00 +17°C° 0.2 mm 2 mps 747 mmHg 88%
22:00 +17°C° 0.2 mm 2 mps 747 mmHg 89%
23:00 +17°C° 0.2 mm 2 mps 747 mmHg 89%
Mostrar más